[[{"header":{"parameterUnit":"m.s-1","parameterCategory":1,"la1":30.2991,"la2":30.254,"lo1":-89.0895,"lo2":-89.0444,"dy":0.0017,"dx":0.0017,"nx":28,"ny":28,"refTime":"2024-08-28T09:00:00:Z","depth":0,"parameterNumber":2,"parameterNumberName":"U-component_of_WINDS"},"data":[0,0,0,0,0,0,0,0,0,0,0,0,0,0,0,0,0,0,0,0,0,0,0,0,0,0,0,0,0,0,0,0,0,0,0,0,0,0,0,0,0,0,0,0,0,0,0,0,0,0,0,0,0,0,0,0,0,0,-3.4774,-3.4774,0,-3.4813,-3.4814,-3.4814,-3.475,-3.4748,-3.4746,-3.4744,-3.478,-3.4783,-3.4786,0,0,0,0,0,0,0,0,0,0,0,0,0,-3.464,-3.4643,-3.4774,-3.4774,-3.4775,-3.4813,-3.4814,-3.4814,-3.4751,-3.4748,-3.4745,-3.4743,-3.4779,-3.4783,-3.4787,0,0,0,0,0,0,0,0,0,0,0,0,0,-3.4691,-3.4644,-3.4774,-3.4748,-3.4746,-3.4813,-3.4814,-3.4814,-3.4751,-3.4748,-3.4745,-3.4742,-3.4778,-3.4783,-3.4787,-3.488,0,0,-3.4801,-3.4803,0,0,0,0,0,0,0,0,-3.4688,-3.4695,-3.4751,-3.475,-3.4748,-3.4773,-3.478,-3.4836,-3.4752,-3.4749,-3.4744,-3.474,-3.4781,-3.4785,-3.4799,-3.4882,-3.4883,-3.4801,-3.4804,-3.4806,-3.4807,0,0,0,0,0,0,0,-3.4684,-3.4693,-3.4789,-3.4752,-3.475,-3.4733,-3.4737,-3.479,-3.4782,-3.4749,-3.4745,-3.475,-3.4779,-3.4795,-3.4799,-3.4884,-3.4801,-3.4805,-3.4808,-3.481,-3.5043,-3.5046,0,0,0,0,0,0,-3.4685,-3.4691,-3.4788,-3.479,-3.4709,-3.4738,-3.4742,-3.4768,-3.4782,-3.4781,-3.4753,-3.4747,-3.4789,-3.4794,-3.48,-3.4908,-3.4806,-3.481,-3.4813,-3.504,-3.5044,-3.5048,0,0,0,0,0,0,-3.4682,-3.4694,-3.4786,-3.474,-3.475,-3.4744,-3.4774,-3.4771,-3.4787,-3.4785,-3.4783,-3.4771,-3.4786,-3.4794,-3.4861,-3.4909,-3.4812,-3.4816,-3.5035,-3.5041,-3.5046,-3.5126,0,0,0,0,0,0,-3.4678,-3.4693,-3.4729,-3.4741,-3.4753,-3.4847,-3.4777,-3.4774,-3.4795,-3.4788,-3.4801,-3.48,-3.4784,-3.4854,-3.4865,-3.4913,-3.482,-3.5031,-3.5038,-3.5044,-3.5119,-3.5134,-3.5146,0,0,0,0,0,-3.4674,-3.475,-3.4732,-3.4744,-3.4798,-3.485,-3.4857,-3.4838,-3.4799,-3.4835,-3.4833,-3.48,-3.4903,-3.4862,-3.4873,-3.4924,-3.5028,-3.5036,-3.5044,-3.5113,-3.5131,-3.5146,0,0,0,0,0,0,-3.4743,-3.4751,-3.4731,-3.4813,-3.4832,-3.4839,-3.4883,-3.4858,-3.4887,-3.4878,-3.4853,-3.4857,-3.4928,-3.4933,-3.4887,-3.5013,-3.4958,-3.4969,-3.5007,-3.5024,-3.5037,-3.5033,-3.4823,0,0,0,0,0,-3.4769,-3.4812,-3.4816,-3.4888,-3.4899,-3.489,-3.4912,-3.4896,-3.4914,-3.4921,-3.4924,-3.4941,-3.4977,-3.5001,-3.5034,-3.5121,-3.5121,-3.5161,-3.5174,-3.5185,-3.5194,-3.5238,-3.5255,-3.5074,-3.5073,-3.5073,0,0,-3.4821,-3.483,-3.4859,-3.4902,-3.4915,-3.4958,-3.4897,-3.4945,-3.4977,-3.4928,-3.499,-3.4994,-3.5011,-3.5087,-3.5121,-3.5093,-3.5244,-3.5195,-3.5204,-3.5207,-3.5247,-3.5265,-3.528,-3.5079,-3.5078,-3.5077,0,0,-3.4937,-3.495,-3.501,-3.5024,-3.5044,-3.5038,-3.5053,-3.5065,-3.5065,-3.5128,-3.5092,-3.5128,-3.5191,-3.5205,-3.522,-3.5342,-3.5311,-3.5353,-3.5422,-3.5465,-3.5479,-3.5492,-3.5533,-3.5548,-3.5363,-3.5363,-3.5363,0,-3.4998,-3.5064,-3.5045,-3.5096,-3.5115,-3.5075,-3.5135,-3.5149,-3.5178,-3.5192,-3.5161,-3.5239,-3.5248,-3.5326,-3.5355,-3.537,-3.5384,-3.535,-3.5479,-3.5491,-3.5503,-3.5541,-3.5557,-3.5368,-3.5367,-3.5367,-3.5366,0,-3.5137,-3.5183,-3.5229,-3.5259,-3.5284,-3.534,-3.5328,-3.5356,-3.5338,-3.5335,-3.5398,-3.5408,-3.5442,-3.546,-3.5443,-3.5535,-3.5517,-3.5484,-3.5427,-3.5525,-3.5561,-3.5576,-3.5374,-3.5373,-3.5371,-3.537,0,0,-3.5296,-3.5316,-3.5333,-3.5346,-3.5365,-3.5399,-3.5453,-3.5486,-3.5509,-3.5531,-3.5574,-3.5628,-3.5597,-3.5614,-3.5599,-3.5637,-3.573,-3.5598,-3.5598,-3.562,-3.5829,-3.5853,-3.587,-3.5711,-3.5714,-3.5716,-3.5827,0,-3.541,-3.5503,-3.5488,-3.5577,-3.5617,-3.558,-3.5626,-3.5642,-3.564,-3.5673,-3.5671,-3.5709,-3.5667,-3.5677,-3.5713,-3.5711,-3.5771,-3.5703,-3.5748,-3.575,-3.5742,-3.589,-3.5914,-3.6019,-3.5841,-3.5844,-3.5845,0,-3.5555,-3.5583,-3.5676,-3.5688,-3.5705,-3.5747,-3.5775,-3.5809,-3.5826,-3.5822,-3.5842,-3.5819,-3.587,-3.5816,-3.5885,-3.5839,-3.5857,-3.5859,-3.5862,-3.5863,-3.5802,-3.5892,-3.6052,-3.6066,-3.5868,-3.5866,-3.5864,0,-3.5659,-3.572,-3.5783,-3.5795,-3.5812,-3.5841,-3.5849,-3.5863,-3.5884,-3.591,-3.5923,-3.5954,-3.597,-3.5994,-3.598,-3.5942,-3.6051,-3.5996,-3.6047,-3.6047,-3.6069,-3.6068,-3.6231,-3.6086,-3.6086,-3.6085,-3.6085,0,-3.5786,-3.5844,-3.583,-3.5868,-3.5932,-3.5914,-3.5976,-3.5979,-3.5992,-3.603,-3.5999,-3.6035,-3.6015,-3.6049,-3.6038,-3.6096,-3.6104,-3.6101,-3.6097,-3.6102,-3.6102,-3.6111,-3.6102,-3.6089,-3.6089,-3.6088,-3.6087,0,-3.5911,-3.5905,-3.5971,-3.5981,-3.5985,-3.6031,-3.6038,-3.6074,-3.6071,-3.6118,-3.6128,-3.6123,-3.6161,-3.615,-3.6191,-3.6183,-3.6256,-3.6244,-3.625,-3.6246,-3.6297,-3.6292,-3.647,-3.6491,-3.6335,-3.6336,-3.6338,0,-3.5992,-3.6035,-3.605,-3.6074,-3.6084,-3.6122,-3.6144,-3.6127,-3.6151,-3.6173,-3.6205,-3.6241,-3.6268,-3.6331,-3.6329,-3.636,-3.6347,-3.6408,-3.6351,-3.6355,-3.6345,-3.6341,-3.6344,-3.6418,-3.642,-3.6421,-3.6422,0,-3.6134,-3.6128,-3.6161,-3.6193,-3.6219,-3.6243,-3.6264,-3.6285,-3.627,-3.6297,-3.6336,-3.6357,-3.64,-3.6434,-3.6463,-3.6469,-3.6443,-3.6441,-3.6453,-3.6458,-3.6459,-3.6456,-3.6278,-3.6436,-3.6434,-3.6433,-3.6433,-3.6432,-3.6237,-3.6274,-3.629,-3.6327,-3.6341,-3.6361,-3.6394,-3.6395,-3.6428,-3.6461,-3.645,-3.6494,-3.6509,-3.6544,-3.6554,-3.6588,-3.6564,-3.6584,-3.6588,-3.6593,-3.6598,-3.6456,-3.6593,-3.6593,-3.6592,-3.6592,-3.6592,0,-3.6375,-3.6384,-3.6419,-3.6449,-3.6478,-3.6453,-3.6474,-3.6499,-3.6539,-3.6555,-3.6583,-3.6627,-3.6661,-3.6663,-3.6694,-3.672,-3.6709,-3.6729,-3.6725,-3.6726,-3.6618,-3.6603,-3.6737,-3.6737,-3.6737,-3.6737,-3.6737,-3.6737,-3.6451,-3.651,-3.6507,-3.6573,-3.658,-3.6624,-3.6638,-3.6656,-3.6669,-3.672,-3.6748,-3.6749,-3.676,-3.6791,-3.6821,-3.682,-3.6832,-3.6856,-3.6851,-3.6749,-3.6734,-3.672,-3.6705,-3.6859,-3.6859,-3.6955,-3.6956,-3.6957]},{"header":{"parameterUnit":"m.s-1","parameterCategory":1,"la1":30.2991,"la2":30.254,"lo1":-89.0895,"lo2":-89.0444,"dy":0.0017,"dx":0.0017,"nx":28,"ny":28,"refTime":"2024-08-28T09:00:00:Z","depth":0,"parameterNumber":3,"parameterNumberName":"V-component_of_WINDS"},"data":[0,0,0,0,0,0,0,0,0,0,0,0,0,0,0,0,0,0,0,0,0,0,0,0,0,0,0,0,0,0,0,0,0,0,0,0,0,0,0,0,0,0,0,0,0,0,0,0,0,0,0,0,0,0,0,0,0,0,0.5412,0.5412,0,0.5458,0.5459,0.5459,0.5453,0.5452,0.5451,0.545,0.5498,0.55,0.5502,0,0,0,0,0,0,0,0,0,0,0,0,0,0.5319,0.5321,0.5412,0.5413,0.5413,0.5458,0.5459,0.5459,0.5453,0.5452,0.5451,0.545,0.5498,0.55,0.5503,0,0,0,0,0,0,0,0,0,0,0,0,0,0.5362,0.5322,0.5412,0.5415,0.5416,0.5458,0.5459,0.546,0.5453,0.5452,0.5451,0.545,0.5497,0.55,0.5503,0.5545,0,0,0.5512,0.5513,0,0,0,0,0,0,0,0,0.536,0.5365,0.5414,0.5415,0.5416,0.5448,0.5444,0.5488,0.5453,0.5439,0.545,0.5449,0.5483,0.5487,0.5498,0.5547,0.5549,0.5512,0.5514,0.5515,0.5516,0,0,0,0,0,0,0,0.5357,0.5363,0.543,0.5415,0.5416,0.5415,0.542,0.5452,0.5467,0.544,0.544,0.5445,0.5483,0.5495,0.5499,0.555,0.5512,0.5515,0.5517,0.5518,0.5635,0.5637,0,0,0,0,0,0,0.5353,0.5361,0.5429,0.5432,0.5384,0.5418,0.5423,0.5439,0.5467,0.547,0.5446,0.5445,0.5491,0.5496,0.5501,0.5551,0.5515,0.5518,0.552,0.5634,0.5636,0.5637,0,0,0,0,0,0,0.5351,0.5359,0.5427,0.5396,0.5405,0.542,0.5439,0.5441,0.5453,0.5471,0.5474,0.5456,0.549,0.5497,0.5534,0.5553,0.552,0.5522,0.5633,0.5635,0.5636,0.5653,0,0,0,0,0,0,0.5348,0.5358,0.5374,0.5397,0.5406,0.5459,0.544,0.5443,0.5458,0.5457,0.5481,0.5484,0.549,0.5529,0.5537,0.5556,0.5525,0.5631,0.5633,0.5636,0.5651,0.5655,0.5659,0,0,0,0,0,0.5345,0.5377,0.5374,0.5383,0.5426,0.546,0.5465,0.5471,0.546,0.5476,0.5487,0.5483,0.555,0.5533,0.5542,0.5562,0.563,0.5633,0.5636,0.5649,0.5654,0.5659,0,0,0,0,0,0,0.5356,0.538,0.5378,0.5418,0.5437,0.5459,0.5479,0.5477,0.55,0.5498,0.5504,0.551,0.5547,0.5559,0.554,0.5605,0.5588,0.5593,0.5595,0.5601,0.5605,0.5601,0.5527,0,0,0,0,0,0.5363,0.5387,0.5407,0.5441,0.5451,0.5463,0.5478,0.5481,0.5501,0.5509,0.5524,0.5544,0.5569,0.5586,0.561,0.5653,0.5658,0.5671,0.5675,0.5679,0.5682,0.5706,0.5712,0.5647,0.5647,0.5647,0,0,0.5377,0.5394,0.5409,0.5443,0.5459,0.5484,0.547,0.5498,0.5517,0.5513,0.5549,0.5561,0.5584,0.5623,0.5642,0.5634,0.5702,0.5683,0.5685,0.5687,0.5709,0.5715,0.5721,0.5649,0.5649,0.5648,0,0,0.5417,0.5432,0.5462,0.5477,0.55,0.5509,0.5516,0.5538,0.5546,0.5582,0.5579,0.5603,0.5647,0.5663,0.5677,0.5724,0.5721,0.5732,0.5754,0.5776,0.5781,0.5786,0.5802,0.5808,0.5736,0.5736,0.5736,0,0.5433,0.5471,0.5477,0.5505,0.5521,0.5519,0.5549,0.5564,0.5594,0.5605,0.5596,0.5651,0.5666,0.571,0.5721,0.5733,0.5742,0.5729,0.578,0.5785,0.5789,0.5805,0.5811,0.5738,0.5737,0.5737,0.5737,0,0.5489,0.5515,0.5537,0.5565,0.5583,0.5612,0.5623,0.5641,0.5643,0.5652,0.5689,0.5708,0.5736,0.5747,0.5749,0.5791,0.5786,0.5779,0.5762,0.5796,0.5811,0.5817,0.5739,0.5739,0.5738,0.5738,0,0,0.5535,0.5567,0.5575,0.5588,0.5614,0.5635,0.5664,0.5692,0.5707,0.5728,0.5753,0.5791,0.5784,0.58,0.5804,0.5824,0.586,0.5815,0.5816,0.5822,0.5907,0.5912,0.5919,0.5859,0.586,0.5861,0.5905,0,0.5577,0.5628,0.5635,0.568,0.5705,0.5704,0.573,0.5749,0.5759,0.5782,0.5793,0.582,0.581,0.5819,0.5839,0.5852,0.5877,0.5849,0.5882,0.5883,0.5875,0.5926,0.5931,0.5972,0.5911,0.5912,0.5913,0,0.5632,0.5654,0.5702,0.5725,0.5735,0.5758,0.5784,0.5806,0.5828,0.5834,0.5852,0.5854,0.5885,0.5869,0.5911,0.5892,0.5906,0.5914,0.5916,0.5918,0.5899,0.5929,0.5985,0.5991,0.5922,0.5921,0.5921,0,0.566,0.5702,0.5736,0.5748,0.5775,0.5791,0.5804,0.5824,0.5841,0.5864,0.5874,0.5901,0.5915,0.5936,0.5945,0.5932,0.5987,0.5971,0.5993,0.5993,0.6003,0.6002,0.6061,0.6014,0.6014,0.6014,0.6014,0,0.5705,0.5734,0.5749,0.577,0.5803,0.5811,0.5844,0.5856,0.5874,0.5898,0.5899,0.5921,0.5933,0.5957,0.5964,0.5998,0.6005,0.6011,0.6012,0.601,0.6009,0.6018,0.6015,0.6016,0.6016,0.6015,0.6015,0,0.5741,0.5753,0.579,0.5813,0.582,0.5843,0.5863,0.5883,0.5894,0.5923,0.5931,0.5947,0.5976,0.5987,0.6022,0.6028,0.6066,0.6066,0.6059,0.6059,0.6079,0.6077,0.6145,0.6154,0.6103,0.6103,0.6103,0,0.5769,0.5791,0.5817,0.5832,0.5845,0.587,0.5887,0.5897,0.5914,0.5941,0.5958,0.5987,0.6009,0.6055,0.607,0.6097,0.6097,0.6119,0.6101,0.6098,0.6096,0.6095,0.6097,0.6122,0.6123,0.6123,0.6123,0,0.5816,0.5821,0.5844,0.587,0.589,0.5911,0.5931,0.5944,0.5957,0.5976,0.6005,0.6023,0.6059,0.6087,0.6115,0.6128,0.6128,0.6129,0.6136,0.6133,0.6127,0.613,0.6067,0.6127,0.6127,0.6127,0.6126,0.6126,0.5848,0.5868,0.5889,0.5915,0.5932,0.5951,0.5971,0.5984,0.6009,0.6038,0.6043,0.6074,0.6096,0.6133,0.6148,0.6172,0.6166,0.6176,0.6178,0.618,0.6181,0.6124,0.6177,0.6177,0.6177,0.6177,0.6177,0,0.5895,0.5908,0.5933,0.5961,0.5982,0.598,0.6003,0.6021,0.6048,0.6068,0.6091,0.6124,0.6152,0.617,0.6198,0.6214,0.6215,0.6221,0.6219,0.6222,0.6184,0.6176,0.622,0.622,0.622,0.622,0.622,0.622,0.5921,0.5954,0.5962,0.6004,0.6017,0.6047,0.606,0.6078,0.6095,0.6132,0.6154,0.6166,0.6186,0.6215,0.624,0.6245,0.6255,0.6261,0.6266,0.6229,0.6225,0.6221,0.6212,0.6264,0.6264,0.6301,0.6302,0.6302]}]]